TimeEDT,TemperatureF,Dew PointF,Humidity,Sea Level PressureIn,VisibilityMPH,Wind Direction,Wind SpeedMPH,Gust SpeedMPH,PrecipitationIn,Events,Conditions,WindDirDegrees,DateUTC
1:53 AM,45.0,39.9,82,30.22,10.0,SSE,5.8,-,N/A,,Clear,160,2012-10-14 05:53:00
2:53 AM,48.9,39.9,71,30.20,10.0,SSE,4.6,-,N/A,,Clear,160,2012-10-14 06:53:00
3:53 AM,48.9,39.9,71,30.19,10.0,SSE,4.6,-,N/A,,Scattered Clouds,150,2012-10-14 07:53:00
4:53 AM,48.0,39.9,74,30.18,10.0,SSE,8.1,-,N/A,,Partly Cloudy,150,2012-10-14 08:53:00
5:53 AM,48.9,41.0,74,30.19,10.0,Calm,Calm,-,N/A,,Mostly Cloudy,0,2012-10-14 09:53:00
6:53 AM,50.0,42.1,74,30.17,10.0,South,3.5,-,N/A,,Partly Cloudy,180,2012-10-14 10:53:00
7:53 AM,51.1,44.1,77,30.18,10.0,Calm,Calm,-,N/A,,Overcast,0,2012-10-14 11:53:00
8:53 AM,53.1,44.1,71,30.19,10.0,South,3.5,-,N/A,,Overcast,180,2012-10-14 12:53:00
9:53 AM,55.9,46.0,69,30.19,10.0,South,4.6,-,N/A,,Overcast,180,2012-10-14 13:53:00
10:53 AM,57.9,46.0,65,30.17,10.0,South,4.6,-,N/A,,Overcast,170,2012-10-14 14:53:00
11:53 AM,60.1,46.9,62,30.15,10.0,South,4.6,-,N/A,,Overcast,170,2012-10-14 15:53:00
12:53 PM,63.0,48.0,58,30.12,10.0,SSE,4.6,-,N/A,,Overcast,150,2012-10-14 16:53:00
1:53 PM,70.0,50.0,49,30.08,10.0,SSE,8.1,-,N/A,,Partly Cloudy,150,2012-10-14 17:53:00
2:53 PM,71.1,50.0,47,30.04,10.0,SSW,11.5,-,N/A,,Clear,200,2012-10-14 18:53:00
3:53 PM,73.0,51.1,46,30.00,10.0,SE,10.4,-,N/A,,Clear,140,2012-10-14 19:53:00
4:53 PM,71.1,52.0,51,29.99,10.0,SSE,11.5,17.3,N/A,,Clear,160,2012-10-14 20:53:00
5:53 PM,69.1,52.0,54,29.96,10.0,SSE,10.4,16.1,N/A,,Clear,150,2012-10-14 21:53:00
6:53 PM,66.0,52.0,60,29.97,10.0,South,6.9,-,N/A,,Clear,170,2012-10-14 22:53:00
7:53 PM,64.9,52.0,63,29.94,10.0,SSE,9.2,-,N/A,,Clear,160,2012-10-14 23:53:00
8:53 PM,63.0,52.0,67,29.93,10.0,South,5.8,-,N/A,,Clear,180,2012-10-15 00:53:00
9:53 PM,63.0,53.1,70,29.91,10.0,South,4.6,-,N/A,,Clear,190,2012-10-15 01:53:00
10:53 PM,64.0,53.1,67,29.91,10.0,South,6.9,-,N/A,,Clear,180,2012-10-15 02:53:00
11:53 PM,63.0,54.0,72,29.88,10.0,South,6.9,-,N/A,,Clear,180,2012-10-15 03:53:00